DW2485 Weather Reports


time (UTC)temp
F
wind
direction
speed
knots
gust
knots
rain 1hr
in
rain 24hr
in
rain mn
in
humidity
%
barometer
mb
20260506181505 53 302 11.3 19.1 0.00 0.00 0.00 100 1019.3
20260506181005 53 287 13.0 21.7 0.00 0.00 0.00 100 1019.3
20260506180006 54 269 11.3 17.4 0.00 0.00 0.00 100 1019.4
20260506175504 53 286 17.4 22.6 0.00 0.00 0.00 100 1019.3
20260506175004 53 292 19.1 26.9 0.00 0.00 0.00 100 1019.4
20260506171505 53 305 15.6 22.6 0.00 0.00 0.00 100 1019.5
20260506170505 53 290 13.9 22.6 0.00 0.00 0.00 100 1019.6
20260506164005 52 294 17.4 24.3 0.00 0.00 0.00 100 1019.4
20260506162005 51 293 14.8 22.6 0.00 0.00 0.00 100 1019.4
20260506161505 52 310 18.2 24.3 0.00 0.00 0.00 100 1019.4
20260506160504 52 320 11.3 17.4 0.00 0.00 0.00 100 1019.4
20260506155505 52 299 18.2 21.7 0.00 0.00 0.00 100 1019.6
20260506155004 51 314 12.2 22.6 0.00 0.00 0.00 100 1019.6
20260506154004 50 290 17.4 21.7 0.00 0.00 0.00 100 1019.6
20260506152504 50 304 15.6 20.9 0.00 0.00 0.00 100 1019.6
20260506152004 51 279 15.6 22.6 0.00 0.00 0.00 100 1019.5
20260506151504 51 277 13.9 18.2 0.00 0.00 0.00 100 1019.4
20260506151005 50 281 11.3 17.4 0.00 0.00 0.00 100 1019.4
20260506150504 50 301 13.9 17.4 0.00 0.00 0.00 100 1019.5
20260506145004 49 307 13.0 18.2 0.00 0.00 0.00 100 1019.5
20260506143504 48 319 11.3 15.6 0.00 0.00 0.00 100 1019.4
20260506140504 47 302 9.6 13.9 0.00 0.00 0.00 100 1019.5
20260506140005 47 310 11.3 17.4 0.00 0.00 0.00 100 1019.5
20260506135505 47 307 7.8 15.6 0.00 0.00 0.00 100 1019.5
20260506135004 47 325 8.7 14.8 0.00 0.00 0.00 100 1019.5
20260506134004 46 301 10.4 13.0 0.00 0.00 0.00 100 1019.3
20260506132504 44 317 11.3 14.8 0.00 0.00 0.00 100 1019.2
20260506131504 44 307 6.1 10.4 0.00 0.00 0.00 100 1019.2
20260506131005 43 302 7.8 10.4 0.00 0.00 0.00 100 1019.1
20260506130504 43 300 8.7 12.2 0.00 0.00 0.00 100 1019.0
20260506125506 43 292 8.7 11.3 0.00 0.00 0.00 100 1018.9
20260506125004 43 303 7.0 10.4 0.00 0.00 0.00 100 1018.8
20260506124004 43 303 4.3 7.0 0.00 0.00 0.00 100 1018.7
20260506123504 42 297 5.2 8.7 0.00 0.00 0.00 100 1018.7
20260506122004 41 291 4.3 6.1 0.00 0.00 0.00 100 1018.5
20260506120005 39 303 5.2 7.8 0.00 0.00 0.00 100 1018.3
20260506115504 39 309 5.2 7.8 0.00 0.00 0.00 100 1018.3
20260506115004 39 314 6.1 8.7 0.00 0.00 0.00 100 1018.1
20260506114005 39 303 7.0 10.4 0.00 0.00 0.00 100 1017.7
20260506113004 39 310 6.1 8.7 0.00 0.00 0.00 100 1017.4
20260506112504 39 317 5.2 7.0 0.00 0.00 0.00 100 1017.4
20260506111004 38 317 5.2 7.0 0.00 0.00 0.00 100 1017.1
20260506104504 38 321 6.1 7.8 0.00 0.00 0.00 100 1017.1
20260506104004 37 318 4.3 6.1 0.00 0.00 0.00 100 1017.0
20260506102503 37 312 4.3 6.1 0.00 0.00 0.00 100 1016.9
20260506102004 37 314 4.3 7.0 0.00 0.00 0.00 100 1016.8
20260506095504 37 318 4.3 5.2 0.00 0.00 0.00 100 1016.7
20260506095004 37 311 4.3 4.3 0.00 0.00 0.00 100 1016.6
20260506094504 36 316 3.5 4.3 0.00 0.00 0.00 100 1016.8
20260506094004 37 319 2.6 4.3 0.00 0.00 0.00 100 1016.7
20260506093004 36 316 4.3 6.1 0.00 0.00 0.00 100 1016.5
20260506092004 37 316 4.3 7.0 0.00 0.00 0.00 100 1016.5
20260506091005 37 314 4.3 7.0 0.00 0.00 0.00 100 1016.3
20260506090504 37 319 5.2 7.8 0.00 0.00 0.00 100 1016.3
20260506085004 37 315 4.3 5.2 0.00 0.00 0.00 100 1016.3
20260506084004 37 329 2.6 4.3 0.00 0.00 0.00 100 1016.3
20260506083004 37 317 2.6 4.3 0.00 0.00 0.00 100 1016.5
20260506073004 37 299 2.6 2.6 0.00 0.00 0.00 100 1016.5
20260506072504 37 302 2.6 2.6 0.00 0.00 0.00 100 1016.2
20260506071004 37 355 1.7 1.7 0.00 0.00 0.00 100 1016.1
20260506061504 40 355 1.7 1.7 0.00 0.00 0.00 100 1015.7
20260506061004 40 355 0.9 0.9 0.00 0.00 0.00 100 1015.6
20260506051004 45 0 0.9 0.9 0.00 0.00 0.00 100 1015.2
20260506050504 45 0 0.9 1.7 0.00 0.00 0.00 100 1015.1
20260506042504 47 4 3.5 6.1 0.00 0.00 0.00 100 1014.8
20260506041504 47 357 3.5 4.3 0.00 0.00 0.00 100 1014.7
20260506040006 48 11 4.3 7.8 0.00 0.00 0.00 100 1014.6
20260506035005 48 355 4.3 8.7 0.00 0.00 0.00 100 1014.7
20260506033006 49 4 4.3 8.7 0.00 0.00 0.00 100 1014.7
20260506032506 49 356 5.2 10.4 0.00 0.00 0.00 100 1014.7
20260506032006 49 352 5.2 10.4 0.00 0.00 0.00 100 1014.6
20260506031506 49 350 6.1 8.7 0.00 0.00 0.00 100 1014.5
20260506030505 49 1 5.2 10.4 0.00 0.00 0.00 100 1014.4
20260506030005 50 352 5.2 8.7 0.00 0.00 0.00 100 1014.4
20260506025506 50 348 6.1 10.4 0.00 0.00 0.00 100 1014.4
20260506024505 50 350 8.7 11.3 0.00 0.00 0.00 100 1014.2
20260506023506 51 347 7.0 11.3 0.00 0.00 0.00 100 1013.9
20260506023006 51 352 7.0 11.3 0.00 0.00 0.00 100 1013.9
20260506022505 51 351 9.6 13.9 0.00 0.00 0.00 100 1013.7
20260506021506 51 349 7.8 13.0 0.00 0.00 0.00 100 1013.5
20260506021006 51 342 8.7 13.0 0.00 0.00 0.00 100 1013.5
20260506020506 52 349 7.8 10.4 0.00 0.00 0.00 100 1013.4
20260506014505 51 340 4.3 7.8 0.00 0.00 0.00 100 1012.9
20260506013005 52 11 4.3 6.1 0.00 0.00 0.00 100 1012.5
20260506012505 52 7 4.3 5.2 0.00 0.00 0.00 100 1012.4
20260506012005 53 4 4.3 5.2 0.00 0.00 0.00 100 1012.4
20260506011505 53 8 4.3 6.1 0.00 0.00 0.00 100 1012.3
20260506011006 53 0 4.3 6.1 0.00 0.00 0.00 100 1012.4
20260506003505 56 327 6.1 11.3 0.00 0.00 0.00 100 1011.8
20260506003006 56 323 7.8 10.4 0.00 0.00 0.00 100 1011.7
20260506002505 56 325 8.7 12.2 0.00 0.00 0.00 100 1011.6
20260506001505 57 310 4.3 7.0 0.00 0.00 0.00 100 1011.6
20260506001005 57 303 5.2 7.8 0.00 0.00 0.00 100 1011.5
20260506000505 57 302 7.8 11.3 0.00 0.00 0.00 100 1011.5
20260505235505 57 319 7.8 11.3 0.00 0.00 0.00 100 1011.5
20260505235005 57 299 8.7 12.2 0.00 0.00 0.00 100 1011.5
20260505233005 58 312 6.1 8.7 0.00 0.00 0.00 100 1011.3
20260505232505 58 295 5.2 10.4 0.00 0.00 0.00 100 1011.4
20260505231505 58 286 5.2 7.8 0.00 0.00 0.00 100 1011.3
20260505231005 58 269 6.1 8.7 0.00 0.00 0.00 100 1011.3
20260505230005 58 276 5.2 8.7 0.00 0.00 0.00 100 1011.3
20260505225005 59 273 6.1 7.8 0.00 0.00 0.00 100 1011.5
20260505224504 59 293 5.2 7.8 0.00 0.00 0.00 100 1011.4
20260505223005 58 304 5.2 7.8 0.00 0.00 0.00 100 1011.4
20260505222505 58 284 5.2 7.0 0.00 0.00 0.00 100 1011.4
20260505221505 58 264 3.5 7.0 0.00 0.00 0.00 100 1011.5
20260505220505 58 307 4.3 6.1 0.00 0.00 0.00 100 1011.6
20260505215504 58 313 5.2 10.4 0.00 0.00 0.00 100 1011.7
20260505215005 58 270 8.7 11.3 0.00 0.00 0.00 100 1011.6
20260505213505 59 270 8.7 12.2 0.00 0.00 0.00 100 1011.8
20260505211005 59 276 12.2 17.4 0.00 0.00 0.00 100 1011.8
20260505205505 59 276 11.3 13.0 0.00 0.00 0.00 100 1012.0
20260505204005 58 305 8.7 14.8 0.00 0.00 0.00 100 1012.3
20260505202505 58 280 10.4 15.6 0.00 0.00 0.00 100 1012.0
20260505202005 59 286 7.8 13.0 0.00 0.00 0.00 100 1012.1
20260505201505 59 280 12.2 15.6 0.00 0.00 0.00 100 1012.2
20260505200005 59 276 9.6 13.9 0.00 0.00 0.00 100 1012.3
20260505195505 59 296 10.4 14.8 0.00 0.00 0.00 100 1012.4
20260505195004 59 255 11.3 17.4 0.00 0.00 0.00 100 1012.4
20260505194005 58 288 8.7 12.2 0.00 0.00 0.00 100 1012.5
20260505192505 58 264 6.1 10.4 0.00 0.00 0.00 100 1012.6
20260505192005 57 280 7.8 10.4 0.00 0.00 0.00 100 1012.6
20260505191505 57 259 7.8 10.4 0.00 0.00 0.00 100 1012.7
20260505190505 57 275 7.8 11.3 0.00 0.00 0.00 100 1013.2
20260505190006 57 250 6.1 10.4 0.00 0.00 0.00 100 1013.3
20260505185505 57 277 10.4 13.9 0.00 0.00 0.00 100 1013.2
20260505185005 57 252 9.6 17.4 0.00 0.00 0.00 100 1013.3
20260505184005 57 237 7.8 11.3 0.00 0.00 0.00 100 1013.3
20260505183505 58 297 7.8 10.4 0.00 0.00 0.00 100 1013.2